User: anonymous   Login
Location: Drayton Valley
(53.2170°N, 114.9830°W)
Time: 15:42:35
(UTC-07:00)
Language:

MOZ.5/SAFIR/RUBIN 5/SL-8 - Orbit

View from above orbital plane
View from above orbital plane
View from above satellite
View from above satellite

Ground track
Ground track

The orbit data is extracted from the following two-line orbital elements,

1 28898U 05043G   15031.51474306  .00000473  00000-0  10792-3 0   422
2 28898 097.8371 213.5128 0020499 041.0886 020.5540 14.59751211493238
Epoch (UTC): 31 January 2015 12:21:13
Eccentricity: 0.0020499
inclination: 97.8371°
perigee height: 679 km
apogee height: 708 km
right ascension of ascending node: 213.5128°
argument of perigee: 41.0886°
revolutions per day: 14.59751211
mean anomaly at epoch: 20.5540°
orbit number at epoch: 49323

The dashed part of the orbit path shows where the satellite is in the earth's shadow,  

DLR